TimeEDT,TemperatureF,Dew PointF,Humidity,Sea Level PressureIn,VisibilityMPH,Wind Direction,Wind SpeedMPH,Gust SpeedMPH,PrecipitationIn,Events,Conditions,WindDirDegrees,DateUTC
12:53 AM,27.0,24.1,89,30.46,10.0,Calm,Calm,-,0.00,Snow,Light Snow,0,2012-10-13 04:53:00
1:53 AM,27.0,24.1,89,30.46,10.0,Calm,Calm,-,0.00,,Clear,0,2012-10-13 05:53:00
2:53 AM,27.0,24.1,89,30.46,10.0,Calm,Calm,-,N/A,,Partly Cloudy,0,2012-10-13 06:53:00
3:53 AM,27.0,24.1,89,30.46,10.0,ESE,3.5,-,0.00,,Mostly Cloudy,120,2012-10-13 07:53:00
4:53 AM,26.1,23.0,88,30.48,9.0,Calm,Calm,-,0.00,,Partly Cloudy,0,2012-10-13 08:53:00
5:53 AM,25.0,21.9,88,30.48,10.0,ESE,5.8,-,0.00,,Clear,120,2012-10-13 09:53:00
6:53 AM,25.0,23.0,92,30.50,9.0,ESE,3.5,-,0.00,Snow,Light Snow,120,2012-10-13 10:53:00
7:53 AM,27.0,24.1,89,30.50,9.0,ESE,3.5,-,0.00,,Clear,120,2012-10-13 11:53:00
8:53 AM,30.9,26.1,82,30.50,9.0,ESE,4.6,-,0.00,Snow,Light Snow,110,2012-10-13 12:53:00
9:53 AM,36.0,27.0,70,30.51,9.0,SSE,3.5,-,0.00,,Clear,160,2012-10-13 13:53:00
10:53 AM,41.0,28.0,60,30.49,10.0,Calm,Calm,-,0.00,,Clear,0,2012-10-13 14:53:00
11:53 AM,45.0,28.9,53,30.47,10.0,Calm,Calm,-,N/A,,Clear,0,2012-10-13 15:53:00
12:53 PM,48.9,28.0,44,30.43,10.0,Calm,Calm,-,N/A,,Clear,0,2012-10-13 16:53:00
1:53 PM,50.0,28.0,43,30.38,10.0,Calm,Calm,-,N/A,,Clear,0,2012-10-13 17:53:00
2:53 PM,51.1,21.9,32,30.35,10.0,Variable,3.5,-,N/A,,Clear,0,2012-10-13 18:53:00
4:53 PM,50.0,25.0,38,30.32,10.0,SSE,8.1,-,N/A,,Clear,160,2012-10-13 20:53:00
5:53 PM,48.9,26.1,41,30.29,10.0,SE,6.9,-,N/A,,Overcast,130,2012-10-13 21:53:00
6:53 PM,46.0,32.0,58,30.29,10.0,East,4.6,-,0.00,Rain,Light Rain,90,2012-10-13 22:53:00
8:53 PM,46.9,28.9,50,30.21,10.0,East,8.1,-,0.00,Rain,Light Rain,90,2012-10-14 00:53:00
10:53 PM,44.1,37.0,76,30.19,10.0,SE,6.9,-,0.01,Rain,Light Rain,130,2012-10-14 02:53:00